This is the latest recevied weather packets stored in our database for station/object WX5HOT. If no packets are shown the sender has not sent any weather packets the latest 10 day(s).
| Time | Temp. | Humidity | Pressure | Rain* | Wind** | Luminosity | Snow |
|---|---|---|---|---|---|---|---|
| 1777255903 | 21.11° C | 98% | 1059.5 hPa | 0 mm | - | 0 W/m² | - |
| 1777255598 | 21.11° C | 98% | 1059.3 hPa | 0 mm | - | 0 W/m² | - |
| 1777255295 | 21.11° C | 98% | 1059.3 hPa | 0 mm | - | 0 W/m² | - |
| 1777254991 | 21.11° C | 98% | 1059.4 hPa | 0 mm | - | 0 W/m² | - |
| 1777254688 | 21.11° C | 98% | 1059.1 hPa | 0 mm | - | 0 W/m² | - |
| 1777254384 | 21.11° C | 98% | 1059 hPa | 0 mm | - | 0 W/m² | - |
| 1777254080 | 21.11° C | 98% | 1059.2 hPa | 0 mm | - | 0 W/m² | - |
| 1777253777 | 21.11° C | 98% | 1059.2 hPa | 0 mm | - | 0 W/m² | - |
| 1777253474 | 21.11° C | 98% | 1059.1 hPa | 0 mm | - | 0 W/m² | - |
| 1777253172 | 21.11° C | 98% | 1059.2 hPa | 0 mm | - | 0 W/m² | - |
| 1777252870 | 21.11° C | 98% | 1059.3 hPa | 0 mm | - | 0 W/m² | - |
| 1777252566 | 21.11° C | 98% | 1059.3 hPa | 0 mm | - | 0 W/m² | - |
| 1777252263 | 21.11° C | 97% | 1059.3 hPa | 0 mm | - | 0 W/m² | - |
| 1777251961 | 21.11° C | 97% | 1059.1 hPa | 0 mm | - | 0 W/m² | - |
| 1777251658 | 21.11° C | 98% | 1059.4 hPa | 0 mm | - | 1 W/m² | - |
| 1777251355 | 21.11° C | 97% | 1059.1 hPa | 0 mm | - | 1 W/m² | - |
| 1777251050 | 21.11° C | 97% | 1059.2 hPa | 0 mm | - | 2 W/m² | - |
| 1777250747 | 21.11° C | 97% | 1059.1 hPa | 0 mm | - | 3 W/m² | - |
| 1777250444 | 21.11° C | 97% | 1059 hPa | 0 mm | - | 3 W/m² | - |
| 1777250138 | 21.11° C | 97% | 1058.9 hPa | 0 mm | - | 9 W/m² | - |
| 1777249835 | 21.11° C | 97% | 1059.2 hPa | 0 mm | - | 16 W/m² | - |
| 1777249531 | 21.11° C | 97% | 1059.2 hPa | 0 mm | - | 19 W/m² | - |
| 1777249229 | 21.11° C | 97% | 1058.9 hPa | 0 mm | - | 15 W/m² | - |
| 1777248925 | 21.11° C | 97% | 1059 hPa | 0 mm | - | 15 W/m² | - |
| 1777248621 | 21.11° C | 96% | 1059.1 hPa | 0 mm | - | 14 W/m² | - |
* Rain latest hour (hover to see other rain measurements)
** Current wind speed in m/s (hover to see current wind gust speed)